SCP
0 0 0 0 0 0 0 0 0 0 0 0 0 0 0 0 0 0 0 0 0 0 0 0 0 0 0 0 0 0 0 0 0 0 0 0 0 0 0 0 0 0 0 0 0 0 0 0 0
0 0 0 0 0 0 0 0 0 0 0 0 0 0 0 0 0 0 0 0 0 0 0 0 0 0 0 0 0 0 0 0 0 0 0 0 0 0 0 0 0 0 0 0 0 0 0 0 0
0 0 0 0 0 0 0 0 0 0 0 0 0 0 0 0 0 0 0 0 0 0 0 0 0 0 0 0 0 0 0 0 0 0 0 0 0 0 0 0 0 0 0 0 0 0 0 0 0
0 0 0 0 0 0 0 0 0 0 0 0 0 0 0 0 0 0 0 0 0 0 0 0 0 0 0 0 0 0 0 0 0 0 0 0 0 0 0 0 0 0 0 0 0 0 0 0 0
0 0 0 0 0 0 0 0 0 0 0 0 0 0 0 0 0 0 0 0 0 0 0 0 0 0 0 0 0 0 0 0 0 0 0 0 0 0 0 0 0 0 0 0 0 0 0 0 0
0 0 0 0 0 0 0 0 0 0 0 0 0 0 0 0 0 0 0 0 0 0 0 0 0 0 0 0 0 0 0 0 0 0 0 0 0 0 0 0 0 0 0 0 0 0 0 0 0
0 0 0 0 0 0 0 0 0 0 0 0 0 0 0 0 0 0 0 0 0 0 0 0 0 0 0 0 0 0 0 0 0 0 0 0 0 0 0 0 0 0 0 0 0 0 0 0 0
0 0 0 0 0 0 0 0 0 0 0 0 0 0 0 0 0 0 0 0 0 0 0 0 0 0 0 0 0 0 0 0 0 0 0 0 0 0 0 0 0 0 0 0 0 0 0 0 0
0 0 0 0 0 0 0 0 0 0 0 0 0 0 0 0 0 0 0 0 0 0 0 0 0 0 0 0 0 0 0 0 0 0 0 0 0 0 0 0 0 0 0 0 0 0 0 0 0
0 0 0 0 0 0 0 0 0 0 0 0 0 0 0 0 0 0 0 0 0 0 0 0 0 0 0 0 0 0 0 0 0 0 0 0 0 0 0 0 0 0 0 0 0 0 0 0 0
0 0 0 0 0 0 0 0 0 0 0 0 0 0 0 0 0 0 0 0 0 0 0 0 0 0 0 0 0 0 0 0 0 0 0 0 0 0 0 0 0 0 0 0 0 0 0 0 0
0 0 0 0 0 0 0 0 0 0 0 0 0 0 0 0 0 0 0 0 0 0 0 0 0 0 0 0 0 0 0 0 0 0 0 0 0 0 0 0 0 0 0 0 0 0 0 0 0
0 0 0 0 0 0 0 0 0 0 0 0 0 0 0 0 0 0 0 0 0 0 0 0 0 0 0 0 0 0 0 0 0 0 0 0 0 0 0 0 0 0 0 0 0 0 0 0 0
0 0 0 0 0 0 0 0 0 0 0 0 0 0 0 0 0 0 0 0 0 0 0 0 0 0 0 0 0 0 0 0 0 0 0 0 0 0 0 0 0 0 0 0 0 0 0 0 0
0 0 0 0 0 0 0 0 0 0 0 0 0 0 0 0 0 0 0 0 0 0 0 0 0 0 0 0 0 0 0 0 0 0 0 0 0 0 0 0 0 0 0 0 0 0 0 0 0
0 0 0 0 0 0 0 0 0 0 0 0 0 0 0 0 0 0 0 0 0 0 0 0 0 0 0 0 0 0 0 0 0 0 0 0 0 0 0 0 0 0 0 0 0 0 0 0 0
0 0 0 0 0 0 0 0 0 0 0 0 0 0 0 0 0 0 0 0 0 0 0 0 0 0 0 0 0 0 0 0 0 0 0 0 0 0 0 0 0 0 0 0 0 0 0 0 0
0 0 0 0 0 0 0 0 0 0 0 0 0 0 0 0 0 0 0 0 0 0 0 0 0 0 0 0 0 0 0 0 0 0 0 0 0 0 0 0 0 0 0 0 0 0 0 0 0
0 0 0 0 0 0 0 0 0 0 0 0 0 0 0 0 0 0 0 0 0 0 0 0 0 0 0 0 0 0 0 0 0 0 0 0 0 0 0 0 0 0 0 0 0 0 0 0 0
0 0 0 0 0 0 0 0 0 0 0 0 0 0 0 0 0 0 0 0 0 0 0 0 0 0 0 0 0 0 0 0 0 0 0 0 0 0 0 0 0 0 0 0 0 0 0 0 0
0 0 0 0 0 0 0 0 0 0 0 0 0 0 0 0 0 0 0 0 0 0 0 0 0 0 0 0 0 0 0 0 0 0 0 0 0 0 0 0 0 0 0 0 0 0 0 0 0
0 0 0 0 0 0 0 0 0 0 0 0 0 0 0 0 0 0 0 0 0 0 0 0 0 0 0 0 0 0 0 0 0 0 0 0 0 0 0 0 0 0 0 0 0 0 0 0 0
0 0 0 0 0 0 0 0 0 0 0 0 0 0 0 0 0 0 0 0 0 0 0 0 0 0 0 0 0 0 0 0 0 0 0 0 0 0 0 0 0 0 0 0 0 0 0 0 0
0 0 0 0 0 0 0 0 0 0 0 0 0 0 0 0 0 0 0 0 0 0 0 0 0 0 0 0 0 0 0 0 0 0 0 0 0 0 0 0 0 0 0 0 0 0 0 0 0
0 0 0 0 0 0 0 0 0 0 0 0 0 0 0 0 0 0 0 0 0 0 0 0 0 0 0 0 0 0 0 0 0 0 0 0 0 0 0 0 0 0 0 0 0 0 0 0 0
0 0 0 0 0 0 0 0 0 0 0 0 0 0 0 0 0 0 0 0 0 0 0 0 0 0 0 0 0 0 0 0 0 0 0 0 0 0 0 0 0 0 0 0 0 0 0 0 0
0 0 0 0 0 0 0 0 0 0 0 0 0 0 0 0 0 0 0 0 0 0 0 0 0 0 0 0 0 0 0 0 0 0 0 0 0 0 0 0 0 0 0 0 0 0 0 0 0
0 0 0 0 0 0 0 0 0 0 0 0 0 0 0 0 0 0 0 0 0 0 0 0 0 0 0 0 0 0 0 0 0 0 0 0 0 0 0 0 0 0 0 0 0 0 0 0 0
0 0 0 0 0 0 0 0 0 0 0 0 0 0 0 0 0 0 0 0 0 0 0 0 0 0 0 0 0 0 0 0 0 0 0 0 0 0 0 0 0 0 0 0 0 0 0 0 0
0 0 0 0 0 0 0 0 0 0 0 0 0 0 0 0 0 0 0 0 0 0 0 0 0 0 0 0 0 0 0 0 0 0 0 0 0 0 0 0 0 0 0 0 0 0 0 0 0
Wind_Speed
6 5 2 1 2 4 2 2 1 2 2 2 3 4 4 3 1 1 0 4 5 3 2 5 8 9 9 10 10 11 11 12 13 12 12 11 11 10 10 10 9 9 9 9 9 9 9 9 8
5 4 1 1 4 3 3 2 2 1 2 2 4 4 5 3 2 3 1 2 4 3 2 4 8 9 9 10 10 11 11 11 12 11 11 10 10 10 9 9 9 8 8 8 8 8 9 8 8
5 3 1 3 2 1 0 1 2 2 2 2 3 4 4 2 2 2 2 5 4 3 2 4 8 9 9 9 10 10 11 11 11 10 10 9 9 9 8 8 8 7 7 8 8 8 8 8 7
2 1 2 3 2 1 2 1 1 2 3 4 4 4 4 3 2 3 5 6 5 3 2 4 8 8 9 9 9 10 10 10 9 9 9 8 8 8 7 7 7 6 6 6 6 6 6 6 6
1 2 4 3 2 1 1 1 1 1 2 3 4 4 4 4 5 7 6 6 5 3 2 3 7 8 9 9 9 9 9 8 8 8 7 7 7 7 6 6 5 5 5 5 5 5 4 4 4
2 3 3 1 2 2 1 2 2 3 3 3 4 3 3 2 5 6 6 5 4 4 3 3 6 8 7 8 9 9 8 7 7 7 6 6 6 6 5 4 4 4 4 3 3 3 3 3 3
2 3 2 1 0 1 1 2 2 2 3 2 3 4 2 2 3 5 6 6 5 4 3 3 2 4 6 7 7 7 7 6 6 5 5 5 5 5 4 3 3 2 2 1 1 1 2 2 2
2 3 2 0 1 1 1 2 2 3 2 3 4 5 3 3 5 6 6 6 5 4 3 3 3 3 2 3 5 6 6 5 5 5 4 4 4 4 3 2 2 1 1 1 1 1 0 1 1
2 4 0 3 3 2 2 3 1 3 4 2 2 3 5 10 9 7 6 4 3 3 2 2 2 2 2 2 2 3 3 4 4 3 3 3 2 2 1 1 1 1 1 2 3 2 1 1 1
3 2 4 3 4 3 3 3 4 3 3 2 4 6 10 10 9 8 6 4 3 2 1 1 1 1 2 1 2 2 2 2 2 2 2 2 2 1 2 3 2 2 3 4 4 4 3 2 1
3 4 3 2 3 3 3 2 2 6 2 5 7 10 11 9 7 7 6 5 4 3 2 2 1 1 1 1 2 1 1 2 2 2 2 2 2 1 2 2 2 3 3 3 4 4 3 2 1
2 3 2 2 2 3 4 3 3 3 4 5 9 13 12 10 8 7 6 5 3 3 2 2 2 2 1 1 1 1 1 1 1 1 1 2 1 1 1 1 2 2 1 2 2 2 3 3 2
2 2 1 2 2 2 3 2 3 1 2 7 11 11 11 9 7 5 4 4 3 3 2 2 2 2 1 1 1 1 1 1 0 1 1 1 1 1 1 1 1 1 1 1 2 2 2 3 2
2 0 0 1 2 1 4 1 2 1 5 9 10 9 8 8 7 5 4 4 4 4 3 2 2 2 2 2 1 1 1 1 1 1 0 1 1 1 0 0 1 1 1 1 1 2 2 2 2
1 2 3 2 1 1 4 2 1 3 7 8 8 7 6 5 5 6 6 5 5 4 3 3 3 2 2 2 2 1 1 1 1 1 1 1 1 1 1 0 0 1 1 1 1 2 2 2 2
3 3 2 2 1 1 4 2 2 4 8 7 7 6 6 4 5 4 4 4 4 4 3 3 3 3 3 2 2 1 1 1 1 1 1 1 1 2 1 1 0 0 1 1 1 1 2 2 1
3 1 2 2 1 2 3 3 2 4 7 6 6 6 5 4 4 4 4 4 4 4 4 3 3 3 3 2 2 1 1 0 0 0 0 1 1 2 1 1 1 1 1 1 1 1 1 1 1
3 3 3 3 2 3 2 3 1 5 6 6 6 5 5 6 6 5 4 4 4 4 4 4 3 3 3 2 1 1 1 0 0 0 1 1 1 1 2 1 1 1 1 1 1 1 1 0 0
4 3 4 5 3 4 4 3 3 5 5 5 5 5 6 6 4 3 3 3 3 3 4 4 4 3 3 2 2 1 1 1 1 1 1 1 1 1 2 1 1 1 1 1 2 1 1 1 1
3 3 4 4 1 4 2 2 2 5 7 7 7 7 7 5 3 4 3 3 4 4 4 4 4 4 3 3 2 2 1 1 1 1 1 1 1 1 2 2 1 1 1 1 1 1 1 0 1
4 5 5 3 1 2 2 3 2 2 3 4 5 6 5 7 7 5 5 4 4 5 6 5 5 4 4 3 2 1 1 1 1 1 1 1 1 1 1 2 2 1 2 1 1 2 2 1 0
5 6 5 4 3 1 1 3 5 3 3 4 5 5 6 6 5 5 5 5 6 5 4 4 4 4 3 4 3 3 2 2 2 1 1 1 0 1 2 2 2 2 2 2 2 2 2 2 1
5 0 2 3 4 1 2 1 7 1 4 7 7 7 6 6 6 6 7 6 5 5 4 4 4 3 3 3 4 3 2 2 0 0 0 1 0 1 1 2 2 2 2 2 2 1 2 2 2
4 6 6 5 5 1 2 3 7 4 6 5 6 7 7 6 6 6 5 4 4 4 4 4 4 3 3 3 3 4 3 2 2 1 0 0 0 0 0 1 1 2 2 2 2 2 2 2 2
4 6 4 4 3 4 2 3 9 6 5 6 7 8 7 6 6 6 6 6 6 5 5 4 5 4 3 3 3 3 3 3 3 2 2 1 1 1 1 1 1 1 1 2 2 2 2 2 2
4 8 7 5 5 4 1 5 8 4 3 3 4 4 5 6 6 7 7 7 6 6 5 5 5 5 4 4 4 3 3 3 2 2 2 2 2 2 1 1 1 1 1 1 2 2 2 2 2
5 3 5 7 2 1 4 6 7 1 1 1 2 4 5 6 7 7 6 6 6 6 6 6 6 5 4 4 4 3 3 3 3 2 2 1 1 1 1 1 1 1 1 2 2 1 2 2 2
4 7 5 5 5 3 4 4 5 5 4 3 3 4 5 5 5 5 5 5 5 5 4 4 5 5 4 3 4 3 3 3 3 2 2 2 1 1 1 1 1 1 1 1 2 1 1 2 2
3 4 5 4 4 6 3 7 5 7 6 6 6 6 5 6 6 5 5 5 5 4 4 4 4 3 3 4 3 3 3 3 3 3 3 2 2 2 2 1 1 1 1 1 1 2 2 2 2
3 5 7 5 4 4 4 8 4 4 5 6 5 4 4 4 4 4 4 4 4 4 4 5 4 4 4 4 3 3 2 2 2 3 3 2 2 1 2 1 1 2 2 2 2 2 2 3 3
Wind_Direction
164 145 141 126 51 47 6 336 10 27 45 40 68 77 91 81 103 162 311 126 125 135 147 144 142 135 128 126 121 120 119 120 120 122 125 129 131 133 136 138 137 137 137 139 140 141 140 139 139
154 158 162 61 67 47 343 339 50 41 137 126 70 69 72 60 56 95 114 126 124 135 134 142 147 140 135 131 125 123 121 121 122 124 126 129 130 132 134 136 136 139 139 141 143 146 145 145 145
168 189 92 62 68 141 245 306 113 91 87 69 65 58 70 69 89 124 149 131 117 119 128 146 145 141 139 135 131 127 125 125 125 126 128 128 129 133 135 137 139 140 142 143 144 146 148 151 151
167 99 56 61 37 259 187 203 123 96 42 43 74 60 55 46 106 125 126 125 116 113 123 141 142 141 140 138 136 133 130 127 125 124 128 130 133 137 138 139 137 138 142 143 143 146 152 157 159
90 73 53 38 1 0 105 136 86 60 52 49 70 73 37 15 86 109 120 120 113 103 96 120 133 138 140 140 137 136 132 130 128 126 131 133 132 132 130 133 135 140 143 143 142 146 153 159 164
58 61 65 33 9 26 63 90 87 72 81 79 77 80 45 52 94 113 113 108 107 107 93 98 128 134 140 142 141 139 138 135 132 131 132 131 130 129 128 133 139 141 146 150 155 158 158 167 175
88 79 98 139 42 358 122 108 112 99 81 84 105 94 73 82 102 109 100 93 88 82 77 73 90 120 133 137 140 143 141 140 138 134 129 129 129 128 133 137 140 136 140 153 181 190 187 195 200
135 87 46 110 150 249 154 105 110 111 93 91 100 128 167 164 121 100 87 83 80 74 67 64 61 69 83 108 130 137 138 137 133 133 130 124 122 124 123 119 126 121 97 27 336 308 241 241 272
119 74 192 206 183 215 163 128 134 101 103 87 86 136 148 132 123 105 90 80 88 97 73 68 65 66 67 77 111 113 124 117 116 117 113 92 59 51 56 48 36 46 1 349 344 336 323 334 330
105 133 228 212 186 181 177 153 150 116 101 88 83 94 118 130 132 130 134 141 149 155 139 93 85 78 74 92 70 56 66 67 67 66 74 71 65 43 33 2 7 6 1 348 346 348 352 11 12
159 198 239 242 199 157 152 150 139 134 173 193 165 147 140 142 144 147 155 163 172 170 158 138 131 91 92 82 75 57 52 56 59 62 67 73 68 44 26 15 5 5 3 356 355 356 7 50 55
179 255 215 217 192 152 160 151 131 168 209 181 157 150 150 155 163 167 167 170 161 152 170 148 143 128 114 98 86 93 90 69 65 58 73 86 81 62 36 22 2 8 1 1 9 9 26 42 48
191 263 226 201 171 155 132 156 142 169 133 128 136 146 156 162 167 169 163 160 158 167 180 169 150 151 139 120 132 126 131 111 107 90 77 102 112 100 50 8 359 359 2 11 17 20 28 35 34
205 181 324 119 112 114 118 102 102 169 129 128 139 152 159 166 167 162 162 172 178 182 188 177 168 166 146 147 152 149 149 151 125 122 145 142 148 147 115 359 345 350 4 18 37 33 36 30 30
63 47 17 36 100 136 109 31 261 169 140 138 148 155 158 163 167 178 182 182 185 185 182 180 176 156 151 158 168 153 155 159 167 176 178 181 176 164 153 141 331 332 18 35 43 41 45 44 42
36 51 8 308 81 95 110 261 270 146 142 146 154 160 165 176 187 191 187 182 184 178 174 191 186 166 167 162 162 147 145 158 203 204 184 193 191 180 166 171 258 355 53 65 68 48 48 39 31
27 359 263 294 152 126 131 244 230 153 151 159 166 169 173 182 201 203 193 189 188 184 177 182 183 178 176 163 149 134 117 165 224 247 233 215 196 182 165 184 203 133 93 83 102 74 76 47 16
228 238 254 239 203 137 174 239 193 168 167 176 175 176 182 194 209 199 191 187 184 182 180 179 181 176 159 142 116 85 58 334 281 242 244 220 188 172 161 174 185 148 130 117 110 112 72 94 351
187 198 255 260 197 158 206 228 203 179 180 182 181 186 197 210 207 181 182 177 172 176 178 180 178 176 152 143 155 159 200 242 265 250 242 229 198 172 158 169 164 155 154 163 151 138 115 72 67
189 216 258 290 159 157 192 260 229 185 195 191 188 195 201 204 197 188 180 174 180 185 189 185 183 177 173 178 172 167 171 202 216 256 283 241 207 193 173 168 170 171 155 137 138 134 128 116 99
222 205 223 211 45 66 97 324 267 219 193 189 194 197 195 200 200 195 190 189 189 192 193 191 186 180 180 169 136 107 69 23 10 336 303 281 203 185 169 163 161 167 157 163 170 160 158 175 179
248 229 200 162 123 279 131 280 283 237 213 207 203 196 197 202 197 195 194 194 196 197 185 177 174 173 171 157 155 161 171 202 231 235 248 288 165 170 165 162 159 158 150 164 193 163 164 162 188
219 69 125 128 127 66 19 170 287 284 236 229 213 201 199 199 195 200 199 197 193 181 169 164 155 155 155 152 160 160 174 196 191 126 331 342 19 164 165 159 149 151 155 166 170 158 160 166 176
139 69 60 55 75 12 245 179 274 236 226 225 208 202 199 196 196 198 195 183 182 172 166 158 150 156 150 150 153 158 167 165 138 135 194 302 291 295 219 174 170 177 178 184 187 183 174 179 178
95 87 35 3 11 253 240 194 251 249 230 210 203 202 199 195 193 191 185 184 185 180 176 169 163 168 164 162 171 177 178 176 184 197 206 217 220 238 252 220 195 196 199 193 181 174 187 193 188
172 140 157 196 222 267 289 233 255 270 263 210 191 186 180 187 192 192 191 187 186 182 179 174 173 176 176 176 184 185 181 184 200 207 207 211 217 228 230 206 194 194 199 200 173 173 195 191 201
140 161 158 131 148 259 277 281 297 288 344 124 153 161 182 192 193 192 187 184 186 185 185 183 179 182 185 188 185 185 184 184 198 208 212 223 226 217 196 200 208 214 205 201 184 188 200 188 202
131 141 104 121 153 236 281 272 252 247 228 206 189 194 196 193 190 188 184 182 185 184 179 176 178 185 188 191 199 195 200 198 196 194 211 220 219 209 183 216 219 221 220 202 188 190 188 188 215
109 101 105 113 149 160 234 265 234 223 211 202 209 205 198 193 192 186 180 179 176 166 164 176 184 184 190 198 202 198 204 203 189 191 210 215 213 202 200 209 223 232 238 211 190 210 196 203 225
159 162 149 153 206 174 181 262 290 229 207 191 201 204 200 194 189 177 169 162 165 172 178 184 189 196 204 198 191 204 207 201 197 206 213 206 212 226 221 208 218 233 232 215 204 217 211 211 225